Date String (YYYY-MM-DD hh:mm:ss) UTC,Instrument flags,absolute air pressure of the measurement (hPa),sample flow rate (lpm),inlet stack bypass flow (lpm),air temperature of the measurement (°C),ambient temperature measured by the external sensor (°C),aerosol sample conditioner tube jacket temperature (°C),OPC LED temperature (°C),internal box temperature (°C),relative humidity of the measurement (%),span deviation,mass concentration of particles derived from Lorenz-Mie calculation of OPC scattering (μg/m³),mass concentration of particles derived from Lorenz-Mie calculation of OPC scattering (μg/m³),mass concentration of particles derived from Lorenz-Mie calculation of OPC scattering (μg/m³)
DateTimeUTC,F1_M11,P_M11,Q1_M11,Q2_M11,T1_M11,T2_M11,T3_M11,T4_M11,T5_M11,U1_M11,ZSPAN_M11,X2_M11,X0_M11,X1_M11
2024-01-28 11:00:00,SystemResetWarning,0835.9,5.00,000.00,020.7,019.7,000.0,029.1,022.0,10.3,0000.0,0003.00,0007.21,0002.53
2024-01-28 11:01:00,SystemResetWarning,0835.9,5.00,000.00,020.7,019.7,000.0,029.1,022.0,10.4,0000.0,0003.10,0007.37,0002.63
2024-01-28 11:02:00,SystemResetWarning,0835.9,5.00,000.00,020.7,019.7,000.0,029.1,022.0,10.6,0000.0,0003.14,0007.14,0002.70
2024-01-28 11:03:00,SystemResetWarning,0835.9,5.00,000.00,020.7,019.7,000.0,029.1,022.0,10.4,0000.0,0003.14,0006.58,0002.72
2024-01-28 11:04:00,SystemResetWarning,0835.9,5.00,000.00,020.7,019.7,000.0,029.1,022.0,10.3,0000.0,0003.14,0006.31,0002.70
2024-01-28 11:05:00,SystemResetWarning,0835.9,5.00,000.00,020.7,019.7,000.0,029.1,022.0,10.2,0000.0,0003.12,0004.79,0002.65
2024-01-28 11:06:00,SystemResetWarning,0835.8,5.00,000.00,020.7,019.7,000.0,029.1,022.0,10.2,0000.0,0003.06,0004.71,0002.58
2024-01-28 11:07:00,SystemResetWarning,0835.9,5.00,000.00,020.7,019.7,000.0,029.0,022.0,10.2,0000.0,0003.01,0004.61,0002.54
2024-01-28 11:08:00,SystemResetWarning,0835.8,5.00,000.00,020.7,019.7,000.0,029.0,022.0,10.2,0000.0,0002.94,0004.39,0002.49
2024-01-28 11:09:00,SystemResetWarning,0835.8,4.99,000.00,020.7,019.7,000.0,029.0,021.9,10.2,0000.0,0002.86,0004.24,0002.44
2024-01-28 11:10:00,SystemResetWarning,0835.8,5.00,000.00,020.6,019.7,000.0,029.0,021.9,10.2,0000.0,0002.67,0003.92,0002.33
2024-01-28 11:11:00,SystemResetWarning,0835.8,5.00,000.00,020.6,019.7,000.0,029.0,021.9,10.2,0000.0,0002.55,0003.53,0002.23
2024-01-28 11:12:00,SystemResetWarning,0835.7,5.01,000.00,020.6,019.7,000.0,029.0,021.9,10.1,0000.0,0002.52,0003.11,0002.21
2024-01-28 11:13:00,SystemResetWarning,0835.7,5.00,000.00,020.6,019.7,000.0,029.0,021.9,10.1,0000.0,0002.60,0003.22,0002.28
2024-01-28 11:14:00,SystemResetWarning,0835.7,5.01,000.00,020.6,019.7,000.0,029.0,021.9,10.2,0000.0,0002.72,0003.40,0002.42
2024-01-28 11:15:00,SystemResetWarning,0835.6,5.00,000.00,020.6,019.7,000.0,029.0,021.9,10.0,0000.0,0002.86,0003.55,0002.57
2024-01-28 11:16:00,SystemResetWarning,0835.6,5.00,000.00,020.6,019.7,000.0,029.0,021.9,10.0,0000.0,0002.95,0003.63,0002.66
2024-01-28 11:17:00,SystemResetWarning,0835.6,5.00,000.00,020.6,019.7,000.0,029.0,021.9,10.0,0000.0,0002.93,0003.55,0002.67
2024-01-28 11:18:00,SystemResetWarning,0835.6,4.99,000.00,020.6,019.7,000.0,029.0,021.9,10.0,0000.0,0002.95,0003.56,0002.68
2024-01-28 11:19:00,SystemResetWarning,0835.6,4.99,000.00,020.6,019.7,000.0,029.0,021.9,10.0,0000.0,0002.93,0003.55,0002.66
2024-01-28 11:20:00,SystemResetWarning,0835.6,5.01,000.00,020.6,019.7,000.0,029.0,021.9,10.0,0000.0,0002.85,0003.48,0002.58
2024-01-28 11:21:00,SystemResetWarning,0835.6,5.01,000.00,020.6,019.7,000.0,028.9,021.9,10.0,0000.0,0002.84,0003.47,0002.57
2024-01-28 11:22:00,SystemResetWarning,0835.6,5.00,000.00,020.6,019.7,000.0,028.9,021.9,10.0,0000.0,0002.81,0003.46,0002.55
2024-01-28 11:23:00,SystemResetWarning,0835.6,5.00,000.00,020.6,019.7,000.0,028.9,021.9,10.0,0000.0,0002.72,0003.34,0002.48
2024-01-28 11:24:00,SystemResetWarning,0835.6,5.00,000.00,020.6,019.7,000.0,028.9,021.8,10.0,0000.0,0002.61,0003.27,0002.37
2024-01-28 11:25:00,SystemResetWarning,0835.6,5.00,000.00,020.6,019.6,000.0,028.9,021.8,10.1,0000.0,0002.44,0003.01,0002.23
2024-01-28 11:26:00,SystemResetWarning,0835.6,5.00,000.00,020.6,019.6,000.0,028.9,021.9,10.1,0000.0,0002.34,0002.89,0002.13
2024-01-28 11:27:00,SystemResetWarning,0835.6,5.00,000.00,020.6,019.6,000.0,028.9,021.9,10.2,0000.0,0002.29,0002.85,0002.06
2024-01-28 11:28:00,SystemResetWarning,0835.6,4.99,000.00,020.5,019.6,000.0,028.9,021.9,10.2,0000.0,0002.31,0002.91,0002.04
2024-01-28 11:29:00,SystemResetWarning,0835.6,5.00,000.00,020.5,019.7,000.0,028.9,021.9,10.1,0000.0,0002.36,0003.01,0002.05
2024-01-28 11:30:00,SystemResetWarning,0835.6,5.00,000.00,020.5,019.7,000.0,028.9,021.9,10.2,0000.0,0002.41,0003.08,0002.11
2024-01-28 11:31:00,SystemResetWarning,0835.6,5.00,000.00,020.5,019.7,000.0,028.9,021.8,10.4,0000.0,0002.53,0003.30,0002.19
2024-01-28 11:32:00,SystemResetWarning,0835.6,5.00,000.00,020.5,019.7,000.0,028.9,021.8,10.4,0000.0,0002.68,0003.52,0002.29
2024-01-28 11:33:00,SystemResetWarning,0835.7,5.00,000.00,020.5,019.7,000.0,028.9,021.8,10.5,0000.0,0002.85,0003.80,0002.42
2024-01-28 11:34:00,SystemResetWarning,0835.8,5.00,000.00,020.5,019.7,000.0,028.9,021.8,10.5,0000.0,0003.04,0004.09,0002.57
2024-01-28 11:35:00,SystemResetWarning,0835.6,5.00,000.00,020.5,019.7,000.0,028.9,021.8,10.6,0000.0,0003.15,0005.25,0002.72
2024-01-28 11:36:00,SystemResetWarning,0835.6,5.00,000.00,020.5,019.7,000.0,028.9,021.8,10.6,0000.0,0003.25,0005.65,0002.87
2024-01-28 11:37:00,SystemResetWarning,0835.6,5.00,000.00,020.5,019.7,000.0,028.9,021.9,10.6,0000.0,0003.32,0005.85,0002.98
2024-01-28 11:38:00,SystemResetWarning,0835.6,5.00,000.00,020.5,019.7,000.0,028.9,021.9,10.6,0000.0,0003.34,0005.99,0003.03
2024-01-28 11:39:00,SystemResetWarning,0835.7,5.00,000.00,020.5,019.7,000.0,028.9,021.9,10.6,0000.0,0003.42,0006.19,0003.15
2024-01-28 11:40:00,SystemResetWarning,0835.7,5.00,000.00,020.5,019.8,000.0,028.9,021.9,10.6,0000.0,0003.48,0006.29,0003.22
2024-01-28 11:41:00,SystemResetWarning,0835.7,5.00,000.00,020.5,019.8,000.0,028.9,021.9,10.6,0000.0,0003.49,0006.34,0003.23
2024-01-28 11:42:00,SystemResetWarning,0835.7,5.00,000.00,020.5,019.8,000.0,028.9,021.9,10.6,0000.0,0003.46,0006.20,0003.22
2024-01-28 11:43:00,SystemResetWarning,0835.7,5.00,000.00,020.6,019.8,000.0,028.9,021.9,10.6,0000.0,0003.46,0006.20,0003.22
2024-01-28 11:44:00,SystemResetWarning,0835.8,5.00,000.00,020.6,019.8,000.0,028.9,021.9,10.6,0000.0,0003.41,0006.04,0003.18
2024-01-28 11:45:00,SystemResetWarning,0835.8,5.00,000.00,020.6,019.7,000.0,028.9,021.9,10.6,0000.0,0003.36,0006.48,0003.14
2024-01-28 11:46:00,SystemResetWarning,0835.8,5.00,000.00,020.6,019.7,000.0,028.9,021.9,10.6,0000.0,0003.31,0005.60,0003.06
2024-01-28 11:47:00,SystemResetWarning,0835.8,5.00,000.00,020.6,019.7,000.0,028.9,021.9,10.6,0000.0,0003.24,0005.37,0002.95
2024-01-28 11:48:00,SystemResetWarning,0835.8,5.00,000.00,020.6,019.7,000.0,028.9,021.9,10.6,0000.0,0003.19,0005.45,0002.86
2024-01-28 11:49:00,SystemResetWarning,0835.8,5.00,000.00,020.6,019.7,000.0,028.9,021.9,10.5,0000.0,0003.19,0005.38,0002.85
2024-01-28 11:50:00,SystemResetWarning,0835.8,5.00,000.00,020.6,019.7,000.0,028.9,021.9,10.5,0000.0,0003.17,0005.34,0002.79
2024-01-28 11:51:00,SystemResetWarning,0835.7,5.00,000.00,020.6,019.7,000.0,028.9,021.9,10.5,0000.0,0003.16,0005.45,0002.77
2024-01-28 11:52:00,SystemResetWarning,0835.7,5.00,000.00,020.6,019.7,000.0,028.9,021.9,10.5,0000.0,0003.18,0005.57,0002.80
2024-01-28 11:53:00,SystemResetWarning,0835.6,5.00,000.00,020.5,019.7,000.0,028.9,021.9,10.4,0000.0,0003.21,0005.65,0002.83
2024-01-28 11:54:00,SystemResetWarning,0835.6,5.00,000.00,020.5,019.7,000.0,028.9,021.9,10.3,0000.0,0003.22,0005.64,0002.87
2024-01-28 11:55:00,SystemResetWarning,0835.6,5.00,000.00,020.6,019.7,000.0,028.9,021.9,10.3,0000.0,0003.26,0005.74,0002.90
2024-01-28 11:56:00,SystemResetWarning,0835.6,5.00,000.00,020.6,019.7,000.0,028.9,021.9,10.3,0000.0,0003.30,0005.44,0002.96
2024-01-28 11:57:00,SystemResetWarning,0835.6,5.00,000.00,020.6,019.7,000.0,028.9,021.9,10.3,0000.0,0003.34,0005.13,0003.04
2024-01-28 11:58:00,SystemResetWarning,0835.6,5.00,000.00,020.5,019.7,000.0,028.9,021.9,10.3,0000.0,0003.37,0005.84,0003.11
2024-01-28 11:59:00,SystemResetWarning,0835.6,5.00,000.00,020.6,019.7,000.0,028.9,021.9,10.3,0000.0,0003.42,0005.74,0003.16
